Theta_e
344 350 357 359 360 361 360 363 362 362 363 362 362 362 362 361 360 362 362 360 361 363 361 361 360 362 361 361 360 359 359 359 359 359 360 359 358 358 358 358 357 354 357
348 353 358 359 359 360 362 362 361 361 363 363 363 362 362 361 361 361 361 361 362 361 360 359 358 360 361 360 360 360 359 360 359 358 359 360 359 359 358 358 358 356 358
350 353 355 359 360 359 359 360 361 361 361 362 362 362 362 362 361 361 361 362 363 362 360 357 357 358 359 357 359 359 358 360 358 359 359 355 355 360 359 359 359 358 358
352 352 354 362 359 358 357 357 359 361 361 362 362 363 363 362 361 362 361 362 362 361 361 360 359 358 359 360 359 359 359 358 358 358 351 351 354 358 359 359 359 359 359
351 353 354 360 360 358 359 357 356 357 359 360 361 361 362 362 362 362 362 362 362 359 361 359 359 358 358 358 358 357 358 358 358 354 351 348 353 354 358 358 358 358 358
349 351 358 361 360 360 359 357 358 359 356 358 359 360 360 362 361 362 361 361 361 360 360 358 358 358 358 357 357 359 358 358 356 351 352 353 353 357 355 357 355 355 358
348 350 353 360 360 359 359 358 358 359 357 358 359 360 361 361 361 360 362 361 361 360 359 359 358 358 359 360 359 358 358 358 351 351 352 353 354 355 354 354 353 354 355
350 351 353 360 359 359 359 359 359 359 358 359 359 359 360 361 360 361 362 359 360 360 359 358 359 363 360 359 357 357 357 356 351 351 350 353 356 354 352 352 353 356 357
352 352 352 353 357 359 359 359 359 358 358 358 358 359 360 360 360 360 360 361 359 359 359 357 357 360 361 357 358 357 357 354 351 351 351 354 356 354 352 352 352 352 354
350 351 350 352 352 352 353 359 359 358 358 358 358 360 359 360 360 360 362 364 360 359 357 357 357 359 360 358 359 356 354 355 350 349 351 353 355 355 354 352 351 351 352
349 348 349 348 350 351 352 355 356 359 359 359 357 358 355 350 353 355 361 362 360 359 357 357 357 358 356 358 359 357 355 350 348 348 351 355 356 357 354 354 351 352 353
344 347 348 348 349 350 356 351 350 353 352 352 351 350 350 351 354 356 360 360 359 359 359 358 357 357 353 353 357 357 349 351 349 347 349 356 353 349 349 349 350 350 349
344 348 347 347 350 350 350 349 349 349 348 348 349 348 349 349 350 351 351 352 351 351 344 349 348 352 352 351 353 348 349 350 350 349 349 355 355 351 350 349 348 348 349
343 347 347 347 348 348 349 348 348 348 348 346 347 348 347 347 348 348 348 348 346 345 342 342 341 341 346 351 350 346 348 349 350 351 349 354 354 353 351 353 351 351 352
341 345 346 347 348 347 348 347 348 348 348 347 347 348 347 346 346 346 347 348 347 342 344 345 343 343 341 343 350 349 347 348 348 350 349 353 355 355 352 352 351 352 352
342 343 346 347 348 347 347 346 346 348 349 348 348 348 347 346 345 346 347 347 347 347 349 348 348 346 341 343 346 349 348 348 349 350 350 349 354 354 355 355 354 353 354
342 344 344 346 348 346 346 347 347 349 349 347 349 348 345 344 345 347 346 347 347 348 350 350 348 346 342 342 343 345 347 348 348 348 349 349 350 353 356 356 357 356 357
343 343 344 348 347 346 345 347 347 347 348 348 349 348 346 344 344 346 347 346 347 349 349 347 345 342 341 340 341 343 344 345 346 347 346 348 348 348 351 355 358 360 359
344 343 342 344 345 345 345 346 346 347 347 346 349 351 348 349 349 347 346 347 348 347 348 345 345 344 344 343 341 342 340 342 343 345 346 345 345 347 348 348 353 357 357
343 343 343 344 344 345 346 344 341 338 342 345 349 350 350 348 349 350 348 349 351 348 348 347 348 347 346 342 342 344 343 341 342 344 345 346 347 346 345 346 347 347 350
342 342 343 341 342 345 344 341 341 337 341 342 346 350 351 351 352 350 350 349 352 348 348 349 347 344 342 342 340 340 341 342 343 343 344 345 346 347 347 348 347 348 349
341 341 342 341 341 345 346 345 344 342 343 344 346 350 352 352 352 349 349 349 351 348 348 349 348 345 344 343 340 337 334 338 342 343 343 343 345 346 347 349 351 352 353
340 339 342 341 341 344 346 345 344 345 345 344 345 348 350 353 352 353 350 350 351 349 348 349 349 347 343 344 344 340 334 331 334 341 341 340 343 344 345 347 350 353 355
340 341 343 342 340 342 346 345 344 343 340 343 344 347 350 353 353 353 352 352 351 350 350 349 348 347 346 345 346 344 340 339 334 335 341 340 341 340 342 342 345 350 353
341 341 341 342 339 342 345 345 344 342 342 344 346 346 349 352 353 353 352 352 350 350 350 351 352 351 347 348 346 344 345 341 340 336 335 339 342 341 342 342 344 347 349
341 341 342 341 340 343 344 343 342 340 340 343 344 343 347 351 352 352 353 351 350 349 349 350 351 349 351 352 350 347 346 343 343 339 335 337 337 342 344 347 348 349 350
Wind_Speed
3 4 8 9 10 11 11 11 12 12 12 13 11 10 11 11 11 11 12 14 14 13 14 17 16 15 16 15 15 16 16 15 14 15 16 16 16 15 16 15 13 12 12
8 6 9 9 9 10 11 11 10 10 11 11 11 10 10 11 12 11 12 14 14 15 15 17 15 16 17 16 16 16 14 14 15 17 16 16 16 16 16 14 15 13 14
10 6 8 10 10 9 9 8 10 9 9 9 10 10 10 10 12 12 13 14 14 15 17 16 15 14 16 16 15 14 14 15 16 15 15 8 10 15 16 16 16 15 15
9 6 6 9 10 9 8 8 8 10 9 9 8 9 9 10 11 12 13 14 15 15 16 15 15 14 14 14 15 14 14 13 13 14 8 8 9 15 15 15 15 15 14
7 6 7 11 9 9 9 8 8 7 7 6 8 9 8 9 10 12 13 14 15 13 15 14 12 11 10 10 10 12 12 13 13 10 7 6 5 12 14 14 13 14 14
7 6 9 11 11 8 9 8 7 7 7 6 8 8 9 9 10 12 14 14 14 13 12 10 10 9 9 8 8 11 12 12 11 8 7 8 6 13 14 14 14 13 13
7 5 6 11 11 8 8 8 8 7 8 7 7 8 9 7 10 10 13 13 13 12 11 9 9 11 12 12 12 11 11 12 7 7 7 6 6 11 12 12 12 12 11
7 6 5 10 10 9 8 8 7 7 7 7 7 8 7 7 8 9 12 13 12 11 10 10 12 11 12 11 10 10 10 10 7 6 5 4 8 10 11 11 10 12 12
6 5 5 4 8 9 8 7 8 7 7 7 8 9 6 6 7 8 10 12 12 11 10 9 9 10 8 10 9 9 9 9 5 4 5 4 8 9 9 9 9 9 9
5 5 5 4 5 5 5 8 7 8 9 10 8 9 6 7 6 7 9 10 12 10 9 8 7 8 8 9 8 9 9 8 4 4 3 3 5 6 7 8 7 7 7
5 4 4 4 5 5 3 4 6 7 9 9 8 9 7 4 5 5 9 11 11 9 7 6 5 6 7 8 9 9 7 3 3 2 2 4 3 7 6 7 6 6 6
5 4 4 4 4 3 3 5 5 5 4 4 5 5 3 4 3 5 8 10 10 9 8 6 5 5 6 3 2 6 2 3 2 1 0 1 2 3 4 4 4 3 4
5 4 4 4 4 3 4 3 2 2 3 3 5 4 4 3 3 3 3 3 3 7 3 4 4 2 1 1 2 3 3 2 1 1 1 2 3 2 2 2 2 2 3
7 5 5 5 4 3 3 3 3 3 2 2 2 3 2 2 3 3 2 3 3 2 3 2 2 3 3 3 3 4 3 2 2 1 1 4 3 2 1 1 2 3 4
6 6 6 5 5 4 4 3 3 3 2 2 2 2 2 2 2 1 2 2 2 2 3 3 3 3 2 2 5 5 4 3 3 1 1 5 4 4 4 4 4 4 5
6 7 7 6 5 4 4 4 3 3 2 3 2 2 2 2 2 2 2 3 3 2 2 2 2 2 3 3 1 2 2 2 1 2 2 2 6 5 6 6 6 6 7
6 6 8 7 6 5 5 4 3 2 3 3 2 3 3 2 2 1 1 1 1 1 3 3 3 2 3 3 2 1 1 2 2 3 3 2 3 6 8 7 8 8 8
6 7 6 8 6 6 4 3 2 3 2 3 3 4 4 3 3 2 1 1 1 2 2 2 2 3 2 1 1 2 2 3 4 3 3 3 3 3 4 8 9 9 10
8 7 7 6 8 6 5 3 2 2 2 3 2 3 4 3 1 1 2 0 2 2 2 2 2 1 1 1 2 3 3 3 4 3 5 5 5 5 3 6 8 8 10
6 6 6 5 6 6 4 4 3 3 2 1 2 3 4 4 4 2 2 2 1 1 2 2 2 1 2 2 2 3 3 3 3 3 4 4 4 5 5 5 4 5 9
7 7 7 7 6 5 3 3 3 3 1 1 1 4 4 4 4 3 2 2 2 2 2 2 1 4 3 2 2 2 2 3 4 4 3 4 6 5 5 4 4 4 4
9 8 6 7 9 6 3 3 3 3 2 2 1 2 4 4 4 4 4 3 3 2 2 3 3 2 2 3 2 1 4 4 3 3 2 3 5 4 5 4 5 5 4
10 10 9 9 9 6 5 4 3 3 3 2 1 1 3 4 4 3 4 4 3 2 1 2 2 3 2 2 2 2 2 2 3 3 3 3 4 3 3 4 5 5 4
12 8 7 6 8 6 7 4 5 4 3 3 3 2 3 3 4 4 4 4 4 2 3 1 2 2 2 3 1 3 2 1 1 4 2 3 3 4 4 3 4 5 4
11 11 7 7 6 6 6 6 4 3 2 2 2 4 3 2 2 3 3 4 4 3 2 3 2 2 1 2 2 1 2 2 1 0 3 4 3 2 2 3 3 3 4
9 9 8 9 6 6 6 6 7 6 5 3 3 3 3 2 2 2 3 2 3 4 3 2 2 2 2 3 2 2 2 1 1 1 1 2 2 3 3 3 2 4 4
Wind_Direction
173 158 150 138 128 124 114 104 106 105 105 104 105 101 100 98 101 101 93 96 102 100 96 102 101 99 103 105 100 98 98 100 100 101 93 89 86 86 82 74 72 69 80
138 145 156 142 128 115 105 108 111 105 102 108 104 103 100 98 105 102 98 104 99 97 97 97 101 89 97 95 97 93 98 87 83 84 79 84 86 85 81 80 77 74 84
134 143 146 138 124 120 117 110 113 117 111 110 110 105 104 101 103 107 107 106 101 96 100 101 100 98 99 92 91 89 87 85 86 80 72 70 84 77 77 73 78 77 82
128 129 130 140 132 129 124 118 111 114 113 109 120 112 112 108 105 107 104 104 99 100 102 102 102 103 101 94 94 93 89 85 82 74 60 52 72 75 80 78 75 76 77
107 118 140 139 139 136 132 127 122 121 116 111 112 110 100 109 100 105 107 106 107 105 102 105 103 100 106 96 87 89 89 86 82 70 65 59 47 83 75 75 78 74 76
111 119 139 138 143 135 145 130 122 139 132 135 121 116 108 112 107 108 112 109 105 104 97 89 87 92 105 106 118 95 91 86 72 61 62 58 47 77 72 68 75 75 68
118 129 138 138 131 134 122 136 122 126 134 137 133 121 116 121 117 102 99 103 109 109 102 86 85 100 98 102 101 95 92 85 70 63 63 60 73 76 79 78 78 77 74
124 133 139 141 133 123 133 130 126 118 128 137 120 125 132 118 109 104 100 111 113 112 103 90 85 92 104 107 97 98 96 83 71 69 64 64 84 82 81 80 82 72 65
117 126 123 115 137 129 130 117 119 121 124 126 130 128 122 119 108 104 110 113 115 118 107 99 91 80 99 114 106 107 99 95 77 65 70 56 88 91 86 82 72 68 66
113 121 120 104 103 97 104 131 128 127 125 124 128 127 129 127 119 117 108 115 111 114 107 99 81 79 79 137 115 115 114 95 75 61 52 73 95 95 96 92 84 75 69
117 113 108 104 109 107 121 130 120 114 120 124 125 118 59 53 50 59 109 102 102 104 99 100 99 76 72 118 122 128 101 96 94 78 38 85 67 78 80 84 77 64 47
138 130 122 130 129 134 103 81 68 65 78 76 79 66 57 60 43 85 97 99 98 93 84 85 83 77 53 56 67 108 111 125 107 116 27 41 95 88 87 79 73 60 42
138 149 146 148 150 132 109 97 71 83 80 80 87 90 54 46 43 44 59 63 61 70 42 35 21 23 49 85 126 126 136 153 144 134 252 286 262 121 82 62 41 20 14
152 160 156 160 157 146 117 109 109 97 89 99 92 104 105 64 55 56 69 64 67 61 69 47 4 311 293 242 197 168 169 186 192 199 256 258 298 303 314 302 312 328 325
164 167 166 153 173 170 145 131 122 100 100 129 140 143 127 118 119 119 99 86 79 43 44 23 8 356 14 244 206 195 198 216 215 239 255 275 267 286 296 295 302 303 297
174 174 156 166 174 171 156 149 153 146 153 137 139 167 178 168 178 126 64 52 64 54 28 9 349 8 33 37 340 234 235 239 249 258 256 279 289 281 285 292 295 293 295
179 165 168 164 160 175 173 159 161 182 151 147 167 166 167 206 218 184 17 5 13 53 51 22 22 22 59 48 34 338 316 306 280 261 268 271 288 290 279 285 290 292 294
154 176 168 174 162 171 173 162 152 168 160 142 154 157 181 210 238 291 128 172 148 87 76 51 27 40 43 62 317 280 269 266 265 264 263 269 268 272 287 290 287 289 292
171 166 175 166 167 163 153 143 141 163 136 126 162 181 183 176 183 253 155 167 350 55 65 45 48 72 53 279 256 260 256 254 267 273 256 255 256 260 264 275 287 291 288
159 159 175 167 152 138 124 104 85 96 86 74 128 181 180 161 177 145 158 106 74 29 66 55 46 22 28 359 310 294 266 262 268 255 266 275 266 268 267 268 279 288 290
154 159 177 153 159 140 149 133 132 138 157 142 212 165 173 165 163 148 153 140 79 56 75 58 54 37 30 1 0 329 318 296 283 276 273 277 274 273 273 270 268 274 292
168 174 177 168 161 171 167 140 139 144 160 148 180 181 168 172 180 161 159 158 127 113 75 69 57 41 22 13 85 60 4 335 344 342 320 298 285 286 279 280 280 277 289
178 182 185 176 169 175 144 109 89 92 88 106 160 186 231 170 179 167 154 141 128 134 140 83 88 73 56 30 45 121 37 328 326 329 351 328 324 308 309 291 289 283 288
194 183 176 175 169 175 157 146 156 165 155 191 163 169 197 200 180 162 164 152 148 139 136 120 100 96 101 37 13 40 50 114 7 331 332 329 322 306 324 317 329 313 301
178 186 180 164 177 165 178 173 159 160 164 129 127 160 179 228 195 186 173 171 155 156 164 143 109 96 79 92 63 7 37 63 86 100 311 327 335 344 344 321 334 322 316
178 176 174 167 190 172 177 172 166 176 181 151 164 186 193 191 195 213 170 178 161 166 169 158 133 137 99 91 90 78 79 61 347 11 317 308 304 324 343 352 338 340 347